Regional Weather Roundup
Issued by NWS

Home | Current Version | Previous Version | Graphics & Text | Print | Product List | Glossary On
Versions: 1 2 3 4 5 6 7 8 9 10 11 12 13 14 15 16 17 18 19 20 21 22 23 24 25 26 27 28 29 30 31 32 33 34 35 36 37 38 39 40 41 42 43 44 45 46 47 48 49 50
000
ASUS43 KDTX 271810
RWRMI
MICHIGAN HOURLY REGIONAL WEATHER ROUNDUP
NATIONAL WEATHER SERVICE DETROIT/PONTIAC MI
200 PM EDT FRI MAR 27 2015

NOTE: "FAIR" INDICATES FEW OR NO CLOUDS BELOW 12,000 FEET WITH NO
SIGNIFICANT WEATHER AND/OR OBSTRUCTION TO VISIBILITY.

MIZ047>049-052>055-059>063-066>070-074>076-081>083-271900-
SOUTHEAST LOWER MICHIGAN

CITY           SKY/WX    TMP DP  RH WIND       PRES   REMARKS
ADRIAN         CLOUDY    25  11  55 NW15      30.04R WCI  13
6HR MIN TEMP:  22; 6HR MAX TEMP:  26; 6HR PCP: TRACE;

ALMA           PTSUNNY   26   1  34 NW13G21   30.08S WCI  15
ANN ARBOR      FLURRIES  25  11  55 N13       30.03S WCI  14
BAD AXE        CLOUDY    19  10  68 N17G28    30.07R HAZE    WCI   3
6HR MIN TEMP:  18; 6HR MAX TEMP:  20;

CARO           CLOUDY    22   9  58 N10       30.06S WCI  11
DETROIT CITY   CLOUDY    27  13  55 N10       30.03R WCI  17
6HR MIN TEMP:  24; 6HR MAX TEMP:  27; 6HR PCP: TRACE;

DETROIT        FLURRIES  27  13  55 NW13      30.03R WCI  16
6HR MIN TEMP:  23; 6HR MAX TEMP:  28; 6HR PCP: TRACE;

FLINT          CLOUDY    25  12  58 N12       30.05S WCI  14
6HR MIN TEMP:  22; 6HR MAX TEMP:  25; 6HR PCP:  0.01;

GROSSE ILE     FLURRIES  27  16  63 N10       30.02R WCI  17
HILLSDALE      CLOUDY    26   6  43 N10G23    30.02S WCI  15
HOWELL         CLOUDY    23  12  63 N7G16     30.03S WCI  15

CITY           SKY/WX    TMP DP  RH WIND       PRES   REMARKS
JACKSON        CLOUDY    25   6  44 NW16      30.04S WCI  12
6HR MIN TEMP:  20; 6HR MAX TEMP:  26; 6HR PCP: TRACE;

LAMBERTVILLE   CLOUDY    28  16  59 N10       30.04R WCI  19
LANSING        FLURRIES  27   4  37 NW12      30.06F WCI  17
6HR MIN TEMP:  20; 6HR MAX TEMP:  27; 6HR PCP: TRACE;

LAPEER         CLOUDY    21  11  65 N9G17     30.04S WCI  11
MASON          CLOUDY    23   9  54 N10       30.05S WCI  12
MONROE         LGT SNOW  27  18  69 N10G16    30.02R WCI  17
MT. CLEMENS    CLOUDY    25  13  60 N18G24    30.01R WCI  11
6HR MIN TEMP:  22; 6HR MAX TEMP:  26; 6HR PCP: TRACE;

PONTIAC        FLURRIES  23  11  60 N15       30.01R WCI  10
6HR MIN TEMP:  20; 6HR MAX TEMP:  24; 6HR PCP: TRACE;

PORT HOPE        N/A     20  12  71 N17G31    30.05R WCI   5
6HR MIN TEMP:  19; 6HR MAX TEMP:  22;

PORT HURON     LGT SNOW  23  12  63 N12G21    30.02S WCI  12
TRI CITIES     PTSUNNY   26   3  37 N16G22    30.07S WCI  14
6HR MIN TEMP:  21; 6HR MAX TEMP:  27; 6HR PCP: TRACE;

TROY           FLURRIES  26  13  58 N10       30.04S WCI  16
SAGINAW HB     CLOUDY    25  10  54 N10G18    30.07S WCI  15
$$
MIZ043>046-050>051-056>058-064>065-071>073-077>080-271900-
SOUTHWEST LOWER MICHIGAN

CITY           SKY/WX    TMP DP  RH WIND       PRES   REMARKS
BATTLE CREEK   SUNNY     28   0  29 NW15G23   30.06R WCI  16
6HR MIN TEMP:  20; 6HR MAX TEMP:  30;

BENTON HARBOR  PTSUNNY   26   8  46 N15G25    30.14R WCI  14
6HR MIN TEMP:  22; 6HR MAX TEMP:  27; 6HR PCP: TRACE;

BIG RAPIDS     MOSUNNY   24   4  43 N13G21    30.07S WCI  12
6HR MIN TEMP:  16; 6HR MAX TEMP:  24;

COLDWATER      MOSUNNY   28  -2  27 N13G20    30.04S WCI  18
6HR MIN TEMP:  20; 6HR MAX TEMP:  28;

FREMONT        FAIR      26  -1  31 N12G24    30.10S WCI  15
HOLLAND        PTSUNNY   26   7  44 NW16G29   30.11S WCI  14
6HR MIN TEMP:  22; 6HR MAX TEMP:  30;

GRAND RAPIDS   MOSUNNY   27   2  34 NW10G23   30.09S WCI  17
6HR MIN TEMP:  20; 6HR MAX TEMP:  28;

IONIA          FAIR      28   1  31 N13G22    30.07S WCI  17
KALAMAZOO      SUNNY     29  -2  26 N17G26    30.08S WCI  17
6HR MIN TEMP:  20; 6HR MAX TEMP:  30;

LUDINGTON      PTSUNNY   22  10  61 N21G28    30.17S WCI   6
6HR MIN TEMP:  18; 6HR MAX TEMP:  23;

MARSHALL       PTSUNNY   27   2  35 NW7G18    30.05S WCI  19
MOUNT PLEASANT SUNNY     26   1  34 NW6G17    30.07S WCI  19
6HR MIN TEMP:  18; 6HR MAX TEMP:  26;

MUSKEGON       PTSUNNY   27   7  42 N20G25    30.13S WCI  13
6HR MIN TEMP:  22; 6HR MAX TEMP:  29;

SOUTH HAVEN    MOSUNNY   29   8  41 N15G28    30.12S WCI  17
$$
MIZ016>042-271900-
NORTHERN LOWER MICHIGAN

CITY           SKY/WX    TMP DP  RH WIND       PRES   REMARKS
ALPENA         PTSUNNY   16   5  62 N15G21    30.12S WCI   1
6HR MIN TEMP:  13; 6HR MAX TEMP:  17; 6HR PCP: TRACE;

BEAVER ISLAND  SUNNY     17  -2  44 NW13G21   30.19S WCI   3
6HR MIN TEMP:   7; 6HR MAX TEMP:  17;

BELLAIRE       SUNNY     16   4  59 N6        30.17S WCI   8
6HR MIN TEMP:  11; 6HR MAX TEMP:  16;

CADILLAC       SUNNY     19   2  47 NW16G25   30.06S WCI   5
CHARLEVOIX     SUNNY     14   4  64 N12       30.21R WCI   0
6HR MIN TEMP:   9; 6HR MAX TEMP:  14;

FRANKFORT      MOSUNNY   20   4  48 N10G21    30.19S WCI   9
GAYLORD        SUNNY     15   0  51 VRB3      30.07R
6HR MIN TEMP:   7; 6HR MAX TEMP:  16;

GRAYLING       SUNNY     21   3  45 N8        30.07S WCI  11
6HR MIN TEMP:  11; 6HR MAX TEMP:  21;

HARBOR SPRINGS SUNNY     18   3  51 NW8G16    30.15S WCI   7
HOUGHTON LAKE  SUNNY     21   0  39 N8G17     30.06S WCI  11
6HR MIN TEMP:  13; 6HR MAX TEMP:  22; 6HR PCP: TRACE;

MANISTEE       MOSUNNY   19   5  53 N16G23    30.17F WCI   5
OSCODA         PTSUNNY   22   7  52 N17G23    30.08S WCI   8
PELLSTON       SUNNY     17   1  49 N7        30.16S WCI   8
6HR MIN TEMP:   7; 6HR MAX TEMP:  17;

ROGERS CITY    PTSUNNY   14   5  69 N12       30.15S WCI   0
TRAVERSE CITY  MOSUNNY   15   6  67 NE13      30.18R WCI   1
6HR MIN TEMP:  13; 6HR MAX TEMP:  16; 6HR PCP: TRACE;

$$
MIZ007>008-015-271900-
EASTERN UPPER MICHIGAN

CITY           SKY/WX    TMP DP  RH WIND       PRES   REMARKS
KINROSS        SUNNY     12   1  62 NW17      30.14F WCI  -5
6HR MIN TEMP:   1; 6HR MAX TEMP:  12;

MACKINAC ISLAN SUNNY     16  -2  44 N10       30.16S WCI   4
6HR MIN TEMP:   7; 6HR MAX TEMP:  16;

NEWBERRY       SUNNY     11  -1  58 NW13      30.18S WCI  -4
S. S. MARIE    SUNNY     12  -1  56 NW15G21   30.16S WCI  -4
6HR MIN TEMP:   4; 6HR MAX TEMP:  14;

MUNISING         N/A     13   4  67 NE16      30.24F WCI  -3
6HR MIN TEMP:   7; 6HR MAX TEMP:  13;

$$
MIZ004>006-011>014-085-271900-
CENTRAL UPPER MICHIGAN

CITY           SKY/WX    TMP DP  RH WIND       PRES   REMARKS
MANISTIQUE     SUNNY     17   2  51 N17       30.19F WCI   1
ESCANABA       SUNNY     21   0  39 N15G22    30.21F WCI   8
6HR MIN TEMP:  10; 6HR MAX TEMP:  21;

MENOMINEE      SUNNY     23   1  39 N10G18    30.21S WCI  12
6HR MIN TEMP:  12; 6HR MAX TEMP:  23;

SAWYER-GWINN   MOSUNNY   14   5  67 N14       30.19F WCI  -1
$$
MIZ001>003-009>011-084-271900-
WESTERN UPPER MICHIGAN

CITY           SKY/WX    TMP DP  RH WIND       PRES   REMARKS
IRON MOUNTAIN  SUNNY     21   0  39 N7        30.17F WCI  12
6HR MIN TEMP:   6; 6HR MAX TEMP:  22;

HOUGHTON       SUNNY     19   2  47 NW3       30.21F
6HR MIN TEMP:   4; 6HR MAX TEMP:  20;

COPPER HARBOR    N/A     15   1  53 NE5       30.27F WCI   8
6HR MIN TEMP:   3; 6HR MAX TEMP:  15;

IRONWOOD       SUNNY     23   7  50 NW6       30.18F WCI  16
6HR MIN TEMP:  16; 6HR MAX TEMP:  23;

$$

ABBREVIATIONS USED IN REMARKS
   TC - TEMPERATURE IN CELSIUS
  WCI - WIND CHILL INDEX
   HX - HEAT INDEX
  VSB - VISIBILITY




USA.gov is the U.S. government's official web portal to all federal, state and local government web resources and services.